Walvis Bay Airport

Jump to: basic info | weather | frequencies | runways | comments

Related pages: nearby airports | nearby navaids | notams | map

Basic information (top)

Codes: WVB FYWB
Location: lon -22.979900, lat 14.645300, elev 299 ft / 91 m msl
Status: medium_airport
Scheduled airline service: no
Links: Wikipedia Mobile

Weather (top)

Current conditions (rec'd 2014/07/31 21:00Z):

FYWB 312100Z AUTO 07007KT //// // ////// 11/10 Q1020

Airport forecast (rec'd 2014/07/30 06:38Z):

TAF FYWB 300400Z 3006/3112 08019G30KT 3000 SS NSC 
      BECMG 3012/3013 35010KT CAVOK

Frequencies (top)

Verify before use: may be inaccurate or out of date.

APP: 122.5 MHz (APP)
TWR: 122.5 MHz (TWR)

Runways (top)

09/27: 7,001 x 98 ft (2,134 x 30 m) — paved — lighted

Latest comments (top)

No comments yet for Walvis Bay Airport

More... (top)

See also NOTAMs and nearby airports and navaids, or visit the Walvis Bay Airport page at the main OurAirports website..